Year,Month,Day,Hour,Minute,Value (Times are PST for temperature in C)
2018,05,30,00,00,9.80
2018,05,30,00,01,9.80
2018,05,30,00,02,9.80
2018,05,30,00,03,9.80
2018,05,30,00,04,9.80
2018,05,30,00,05,9.80
2018,05,30,00,06,9.70
2018,05,30,00,07,9.70
2018,05,30,00,08,9.70
2018,05,30,00,09,9.70
2018,05,30,00,10,9.60
2018,05,30,00,11,9.60
2018,05,30,00,12,9.60
2018,05,30,00,13,9.60
2018,05,30,00,14,9.50
2018,05,30,00,15,9.50
2018,05,30,00,16,9.40
2018,05,30,00,17,9.40
2018,05,30,00,18,9.40
2018,05,30,00,19,9.30
2018,05,30,00,20,9.30
2018,05,30,00,21,9.30
2018,05,30,00,22,9.20
2018,05,30,00,23,9.20
2018,05,30,00,24,9.20
2018,05,30,00,25,9.20
2018,05,30,00,26,9.20
2018,05,30,00,27,9.10
2018,05,30,00,28,9.10
2018,05,30,00,29,9.10
2018,05,30,00,30,9.10
2018,05,30,00,31,9.10
2018,05,30,00,32,9.10
2018,05,30,00,33,9.10
2018,05,30,00,34,9.00
2018,05,30,00,35,9.00
2018,05,30,00,36,9.00
2018,05,30,00,37,9.00
2018,05,30,00,38,9.00
2018,05,30,00,39,9.00
2018,05,30,00,40,9.00
2018,05,30,00,41,9.00
2018,05,30,00,42,9.00
2018,05,30,00,43,9.00
2018,05,30,00,44,9.00
2018,05,30,00,45,9.00
2018,05,30,00,46,9.00
2018,05,30,00,47,8.90
2018,05,30,00,48,8.90
2018,05,30,00,49,8.90
2018,05,30,00,50,8.90
2018,05,30,00,51,8.90
2018,05,30,00,52,8.90
2018,05,30,00,53,8.90
2018,05,30,00,54,8.90
2018,05,30,00,55,8.90
2018,05,30,00,56,8.80
2018,05,30,00,57,8.80
2018,05,30,00,58,8.80
2018,05,30,00,59,8.80
2018,05,30,01,00,8.80
2018,05,30,01,01,8.80
2018,05,30,01,02,8.80
2018,05,30,01,03,8.70
2018,05,30,01,04,8.70
2018,05,30,01,05,8.70
2018,05,30,01,06,8.70
2018,05,30,01,07,8.70
2018,05,30,01,08,8.70
2018,05,30,01,09,8.70
2018,05,30,01,10,8.60
2018,05,30,01,11,8.60
2018,05,30,01,12,8.60
2018,05,30,01,13,8.60
2018,05,30,01,14,8.60
2018,05,30,01,15,8.60
2018,05,30,01,16,8.60
2018,05,30,01,17,8.60
2018,05,30,01,18,8.60
2018,05,30,01,19,8.50
2018,05,30,01,20,8.50
2018,05,30,01,21,8.50
2018,05,30,01,22,8.50
2018,05,30,01,23,8.40
2018,05,30,01,24,8.40
2018,05,30,01,25,8.40
2018,05,30,01,26,8.40
2018,05,30,01,27,8.40
2018,05,30,01,28,8.40
2018,05,30,01,29,8.40
2018,05,30,01,30,8.40
2018,05,30,01,31,8.40
2018,05,30,01,32,8.40
2018,05,30,01,33,8.40
2018,05,30,01,34,8.40
2018,05,30,01,35,8.40
2018,05,30,01,36,8.40
2018,05,30,01,37,8.30
2018,05,30,01,38,8.30
2018,05,30,01,39,8.30
2018,05,30,01,40,8.30
2018,05,30,01,41,8.30
2018,05,30,01,42,8.30
2018,05,30,01,43,8.30
2018,05,30,01,44,8.30
2018,05,30,01,45,8.30
2018,05,30,01,46,8.30
2018,05,30,01,47,8.30
2018,05,30,01,48,8.30
2018,05,30,01,49,8.30
2018,05,30,01,50,8.30
2018,05,30,01,51,8.30
2018,05,30,01,52,8.30
2018,05,30,01,53,8.20
2018,05,30,01,54,8.20
2018,05,30,01,55,8.20
2018,05,30,01,56,8.20
2018,05,30,01,57,8.20
2018,05,30,01,58,8.20
2018,05,30,01,59,8.20
2018,05,30,02,00,8.20
2018,05,30,02,01,8.20
2018,05,30,02,02,8.20
2018,05,30,02,03,8.20
2018,05,30,02,04,8.20
2018,05,30,02,05,8.20
2018,05,30,02,06,8.20
2018,05,30,02,07,8.20
2018,05,30,02,08,8.20
2018,05,30,02,09,8.20
2018,05,30,02,10,8.20
2018,05,30,02,11,8.20
2018,05,30,02,12,8.20
2018,05,30,02,13,8.20
2018,05,30,02,14,8.20
2018,05,30,02,15,8.20
2018,05,30,02,16,8.20
2018,05,30,02,17,8.20
2018,05,30,02,18,8.20
2018,05,30,02,19,8.20
2018,05,30,02,20,8.20
2018,05,30,02,21,8.20
2018,05,30,02,22,8.20
2018,05,30,02,23,8.10
2018,05,30,02,24,8.10
2018,05,30,02,25,8.10
2018,05,30,02,26,8.10
2018,05,30,02,27,8.10
2018,05,30,02,28,8.10
2018,05,30,02,29,8.10
2018,05,30,02,30,8.10
2018,05,30,02,31,8.10
2018,05,30,02,32,8.10
2018,05,30,02,33,8.00
2018,05,30,02,34,8.00
2018,05,30,02,35,8.00
2018,05,30,02,36,8.00
2018,05,30,02,37,8.00
2018,05,30,02,38,7.90
2018,05,30,02,39,7.90
2018,05,30,02,40,7.90
2018,05,30,02,41,7.90
2018,05,30,02,42,7.90
2018,05,30,02,43,7.80
2018,05,30,02,44,7.80
2018,05,30,02,45,7.80
2018,05,30,02,46,7.80
2018,05,30,02,47,7.80
2018,05,30,02,48,7.80
2018,05,30,02,49,7.80
2018,05,30,02,50,7.70
2018,05,30,02,51,7.70
2018,05,30,02,52,7.70
2018,05,30,02,53,7.70
2018,05,30,02,54,7.70
2018,05,30,02,55,7.70
2018,05,30,02,56,7.70
2018,05,30,02,57,7.70
2018,05,30,02,58,7.70
2018,05,30,02,59,7.70
2018,05,30,03,00,7.70
2018,05,30,03,01,7.70
2018,05,30,03,02,7.70
2018,05,30,03,03,7.60
2018,05,30,03,04,7.60
2018,05,30,03,05,7.60
2018,05,30,03,06,7.60
2018,05,30,03,07,7.60
2018,05,30,03,08,7.60
2018,05,30,03,09,7.60
2018,05,30,03,10,7.60
2018,05,30,03,11,7.60
2018,05,30,03,12,7.60
2018,05,30,03,13,7.60
2018,05,30,03,14,7.50
2018,05,30,03,15,7.50
2018,05,30,03,16,7.50
2018,05,30,03,17,7.50
2018,05,30,03,18,7.40
2018,05,30,03,19,7.40
2018,05,30,03,20,7.40
2018,05,30,03,21,7.40
2018,05,30,03,22,7.40
2018,05,30,03,23,7.40
2018,05,30,03,24,7.40
2018,05,30,03,25,7.40
2018,05,30,03,26,7.40
2018,05,30,03,27,7.30
2018,05,30,03,28,7.30
2018,05,30,03,29,7.30
2018,05,30,03,30,7.30
2018,05,30,03,31,7.30
2018,05,30,03,32,7.20
2018,05,30,03,33,7.20
2018,05,30,03,34,7.20
2018,05,30,03,35,7.20
2018,05,30,03,36,7.20
2018,05,30,03,37,7.20
2018,05,30,03,38,7.20
2018,05,30,03,39,7.20
2018,05,30,03,40,7.20
2018,05,30,03,41,7.20
2018,05,30,03,42,7.20
2018,05,30,03,43,7.20
2018,05,30,03,44,7.20
2018,05,30,03,45,7.20
2018,05,30,03,46,7.10
2018,05,30,03,47,7.10
2018,05,30,03,48,7.10
2018,05,30,03,49,7.10
2018,05,30,03,50,7.10
2018,05,30,03,51,7.10
2018,05,30,03,52,7.10
2018,05,30,03,53,7.00
2018,05,30,03,54,7.00
2018,05,30,03,55,7.00
2018,05,30,03,56,7.00
2018,05,30,03,57,7.00
2018,05,30,03,58,7.00
2018,05,30,03,59,7.00
2018,05,30,04,00,6.90
2018,05,30,04,01,6.90
2018,05,30,04,02,6.90
2018,05,30,04,03,6.90
2018,05,30,04,04,6.80
2018,05,30,04,05,6.80
2018,05,30,04,06,6.80
2018,05,30,04,07,6.80
2018,05,30,04,08,6.80
2018,05,30,04,09,6.80
2018,05,30,04,10,6.80
2018,05,30,04,11,6.70
2018,05,30,04,12,6.70
2018,05,30,04,13,6.70
2018,05,30,04,14,6.70
2018,05,30,04,15,6.70
2018,05,30,04,16,6.70
2018,05,30,04,17,6.70
2018,05,30,04,18,6.70
2018,05,30,04,19,6.70
2018,05,30,04,20,6.60
2018,05,30,04,21,6.60
2018,05,30,04,22,6.60
2018,05,30,04,23,6.60
2018,05,30,04,24,6.60
2018,05,30,04,25,6.60
2018,05,30,04,26,6.60
2018,05,30,04,27,6.60
2018,05,30,04,28,6.60
2018,05,30,04,29,6.60
2018,05,30,04,30,6.60
2018,05,30,04,31,6.60
2018,05,30,04,32,6.60
2018,05,30,04,33,6.60
2018,05,30,04,34,6.50
2018,05,30,04,35,6.50
2018,05,30,04,36,6.50
2018,05,30,04,37,6.50
2018,05,30,04,38,6.50
2018,05,30,04,39,6.50
2018,05,30,04,40,6.40
2018,05,30,04,41,6.40
2018,05,30,04,42,6.40
2018,05,30,04,43,6.40
2018,05,30,04,44,6.40
2018,05,30,04,45,6.40
2018,05,30,04,46,6.40
2018,05,30,04,47,6.40
2018,05,30,04,48,6.40
2018,05,30,04,49,6.40
2018,05,30,04,50,6.40
2018,05,30,04,51,6.40
2018,05,30,04,52,6.40
2018,05,30,04,53,6.30
2018,05,30,04,54,6.30
2018,05,30,04,55,6.30
2018,05,30,04,56,6.30
2018,05,30,04,57,6.30
2018,05,30,04,58,6.30
2018,05,30,04,59,6.30
2018,05,30,05,00,6.30
2018,05,30,05,01,6.30
2018,05,30,05,02,6.30
2018,05,30,05,03,6.30
2018,05,30,05,04,6.30
2018,05,30,05,05,6.30
2018,05,30,05,06,6.30
2018,05,30,05,07,6.30
2018,05,30,05,08,6.30
2018,05,30,05,09,6.30
2018,05,30,05,10,6.30
2018,05,30,05,11,6.20
2018,05,30,05,12,6.20
2018,05,30,05,13,6.20
2018,05,30,05,14,6.20
2018,05,30,05,15,6.20
2018,05,30,05,16,6.20
2018,05,30,05,17,6.20
2018,05,30,05,18,6.20
2018,05,30,05,19,6.20
2018,05,30,05,20,6.20
2018,05,30,05,21,6.20
2018,05,30,05,22,6.20
2018,05,30,05,23,6.20
2018,05,30,05,24,6.20
2018,05,30,05,25,6.20
2018,05,30,05,26,6.20
2018,05,30,05,27,6.20
2018,05,30,05,28,6.20
2018,05,30,05,29,6.20
2018,05,30,05,30,6.20
2018,05,30,05,31,6.20
2018,05,30,05,32,6.20
2018,05,30,05,33,6.10
2018,05,30,05,34,6.10
2018,05,30,05,35,6.10
2018,05,30,05,36,6.10
2018,05,30,05,37,6.10
2018,05,30,05,38,6.10
2018,05,30,05,39,6.10
2018,05,30,05,40,6.10
2018,05,30,05,41,6.10
2018,05,30,05,42,6.10
2018,05,30,05,43,6.10
2018,05,30,05,44,6.10
2018,05,30,05,45,6.10
2018,05,30,05,46,6.10
2018,05,30,05,47,6.10
2018,05,30,05,48,6.10
2018,05,30,05,49,6.10
2018,05,30,05,50,6.10
2018,05,30,05,51,6.10
2018,05,30,05,52,6.10
2018,05,30,05,53,6.10
2018,05,30,05,54,6.10
2018,05,30,05,55,6.10
2018,05,30,05,56,6.10
2018,05,30,05,57,6.10
2018,05,30,05,58,6.10
2018,05,30,05,59,6.10
2018,05,30,06,00,6.10
2018,05,30,06,01,6.10
2018,05,30,06,02,6.10
2018,05,30,06,03,6.10
2018,05,30,06,04,6.10
2018,05,30,06,05,6.10
2018,05,30,06,06,6.10
2018,05,30,06,07,6.10
2018,05,30,06,08,6.10
2018,05,30,06,09,6.10
2018,05,30,06,10,6.10
2018,05,30,06,11,6.10
2018,05,30,06,12,6.10
2018,05,30,06,13,6.10
2018,05,30,06,14,6.10
2018,05,30,06,15,6.10
2018,05,30,06,16,6.10
2018,05,30,06,17,6.10
2018,05,30,06,18,6.10
2018,05,30,06,19,6.20
2018,05,30,06,20,6.20
2018,05,30,06,21,6.20
2018,05,30,06,22,6.20
2018,05,30,06,23,6.20
2018,05,30,06,24,6.20
2018,05,30,06,25,6.20
2018,05,30,06,26,6.20
2018,05,30,06,27,6.20
2018,05,30,06,28,6.20
2018,05,30,06,29,6.20
2018,05,30,06,30,6.20
2018,05,30,06,31,6.20
2018,05,30,06,32,6.20
2018,05,30,06,33,6.20
2018,05,30,06,34,6.20
2018,05,30,06,35,6.20
2018,05,30,06,36,6.20
2018,05,30,06,37,6.20
2018,05,30,06,38,6.20
2018,05,30,06,39,6.20
2018,05,30,06,40,6.20
2018,05,30,06,41,6.20
2018,05,30,06,42,6.20
2018,05,30,06,43,6.20
2018,05,30,06,44,6.30
2018,05,30,06,45,6.30
2018,05,30,06,46,6.30
2018,05,30,06,47,6.30
2018,05,30,06,48,6.30
2018,05,30,06,49,6.40
2018,05,30,06,50,6.40
2018,05,30,06,51,6.40
2018,05,30,06,52,6.40
2018,05,30,06,53,6.50
2018,05,30,06,54,6.50
2018,05,30,06,55,6.50
2018,05,30,06,56,6.50
2018,05,30,06,57,6.60
2018,05,30,06,58,6.60
2018,05,30,06,59,6.60
2018,05,30,07,00,6.70
2018,05,30,07,01,6.70
2018,05,30,07,02,6.70
2018,05,30,07,03,6.70
2018,05,30,07,04,6.70
2018,05,30,07,05,6.80
2018,05,30,07,06,6.80
2018,05,30,07,07,6.80
2018,05,30,07,08,6.80
2018,05,30,07,09,6.80
2018,05,30,07,10,6.80
2018,05,30,07,11,6.90
2018,05,30,07,12,6.90
2018,05,30,07,13,6.90
2018,05,30,07,14,6.90
2018,05,30,07,15,6.90
2018,05,30,07,16,7.00
2018,05,30,07,17,7.00
2018,05,30,07,18,7.00
2018,05,30,07,19,7.10
2018,05,30,07,20,7.10
2018,05,30,07,21,7.10
2018,05,30,07,22,7.20
2018,05,30,07,23,7.20
2018,05,30,07,24,7.20
2018,05,30,07,25,7.20
2018,05,30,07,26,7.20
2018,05,30,07,27,7.30
2018,05,30,07,28,7.30
2018,05,30,07,29,7.30
2018,05,30,07,30,7.40
2018,05,30,07,31,7.40
2018,05,30,07,32,7.40
2018,05,30,07,33,7.50
2018,05,30,07,34,7.50
2018,05,30,07,35,7.60
2018,05,30,07,36,7.60
2018,05,30,07,37,7.60
2018,05,30,07,38,7.70
2018,05,30,07,39,7.70
2018,05,30,07,40,7.80
2018,05,30,07,41,7.80
2018,05,30,07,42,7.90
2018,05,30,07,43,7.90
2018,05,30,07,44,8.00
2018,05,30,07,45,8.00
2018,05,30,07,46,8.10
2018,05,30,07,47,8.10
2018,05,30,07,48,8.10
2018,05,30,07,49,8.20
2018,05,30,07,50,8.20
2018,05,30,07,51,8.30
2018,05,30,07,52,8.30
2018,05,30,07,53,8.30
2018,05,30,07,54,8.40
2018,05,30,07,55,8.40
2018,05,30,07,56,8.50
2018,05,30,07,57,8.50
2018,05,30,07,58,8.60
2018,05,30,07,59,8.60
2018,05,30,08,00,8.60
2018,05,30,08,01,8.60
2018,05,30,08,02,8.70
2018,05,30,08,03,8.70
2018,05,30,08,04,8.70
2018,05,30,08,05,8.80
2018,05,30,08,06,8.80
2018,05,30,08,07,8.80
2018,05,30,08,08,8.80
2018,05,30,08,09,8.90
2018,05,30,08,10,8.90
2018,05,30,08,11,9.00
2018,05,30,08,12,9.00
2018,05,30,08,13,9.10
2018,05,30,08,14,9.10
2018,05,30,08,15,9.10
2018,05,30,08,16,9.20
2018,05,30,08,17,9.20
2018,05,30,08,18,9.20
2018,05,30,08,19,9.20
2018,05,30,08,20,9.20
2018,05,30,08,21,9.20
2018,05,30,08,22,9.30
2018,05,30,08,23,9.30
2018,05,30,08,24,9.30
2018,05,30,08,25,9.30
2018,05,30,08,26,9.30
2018,05,30,08,27,9.40
2018,05,30,08,28,9.40
2018,05,30,08,29,9.40
2018,05,30,08,30,9.40
2018,05,30,08,31,9.50
2018,05,30,08,32,9.50
2018,05,30,08,33,9.50
2018,05,30,08,34,9.60
2018,05,30,08,35,9.60
2018,05,30,08,36,9.60
2018,05,30,08,37,9.60
2018,05,30,08,38,9.60
2018,05,30,08,39,9.60
2018,05,30,08,40,9.70
2018,05,30,08,41,9.70
2018,05,30,08,42,9.70
2018,05,30,08,43,9.70
2018,05,30,08,44,9.70
2018,05,30,08,45,9.80
2018,05,30,08,46,9.80
2018,05,30,08,47,9.80
2018,05,30,08,48,9.80
2018,05,30,08,49,9.90
2018,05,30,08,50,9.90
2018,05,30,08,51,9.90
2018,05,30,08,52,10.00
2018,05,30,08,53,10.00
2018,05,30,08,54,10.10
2018,05,30,08,55,10.10
2018,05,30,08,56,10.20
2018,05,30,08,57,10.20
2018,05,30,08,58,10.20
2018,05,30,08,59,10.30
2018,05,30,09,00,10.30
2018,05,30,09,01,10.30
2018,05,30,09,02,10.40
2018,05,30,09,03,10.40
2018,05,30,09,04,10.40
2018,05,30,09,05,10.50
2018,05,30,09,06,10.50
2018,05,30,09,07,10.50
2018,05,30,09,08,10.60
2018,05,30,09,09,10.60
2018,05,30,09,10,10.70
2018,05,30,09,11,10.70
2018,05,30,09,12,10.70
2018,05,30,09,13,10.70
2018,05,30,09,14,10.80
2018,05,30,09,15,10.80
2018,05,30,09,16,10.80
2018,05,30,09,17,10.80
2018,05,30,09,18,10.90
2018,05,30,09,19,10.90
2018,05,30,09,20,10.90
2018,05,30,09,21,11.00
2018,05,30,09,22,11.00
2018,05,30,09,23,11.00
2018,05,30,09,24,11.10
2018,05,30,09,25,11.10
2018,05,30,09,26,11.10
2018,05,30,09,27,11.10
2018,05,30,09,28,11.10
2018,05,30,09,29,11.20
2018,05,30,09,30,11.20
2018,05,30,09,31,11.20
2018,05,30,09,32,11.30
2018,05,30,09,33,11.30
2018,05,30,09,34,11.40
2018,05,30,09,35,11.40
2018,05,30,09,36,11.50
2018,05,30,09,37,11.50
2018,05,30,09,38,11.60
2018,05,30,09,39,11.60
2018,05,30,09,40,11.60
2018,05,30,09,41,11.70
2018,05,30,09,42,11.70
2018,05,30,09,43,11.70
2018,05,30,09,44,11.80
2018,05,30,09,45,11.80
2018,05,30,09,46,11.80
2018,05,30,09,47,11.90
2018,05,30,09,48,11.90
2018,05,30,09,49,11.90
2018,05,30,09,50,11.90
2018,05,30,09,51,12.00
2018,05,30,09,52,12.00
2018,05,30,09,53,12.10
2018,05,30,09,54,12.10
2018,05,30,09,55,12.10
2018,05,30,09,56,12.20
2018,05,30,09,57,12.20
2018,05,30,09,58,12.30
2018,05,30,09,59,12.30
2018,05,30,10,00,12.30
2018,05,30,10,01,12.40
2018,05,30,10,02,12.40
2018,05,30,10,03,12.40
2018,05,30,10,04,12.40
2018,05,30,10,05,12.50
2018,05,30,10,06,12.50
2018,05,30,10,07,12.60
2018,05,30,10,08,12.60
2018,05,30,10,09,12.60
2018,05,30,10,10,12.60
2018,05,30,10,11,12.70
2018,05,30,10,12,12.70
2018,05,30,10,13,12.70
2018,05,30,10,14,12.70
2018,05,30,10,15,12.80
2018,05,30,10,16,12.80
2018,05,30,10,17,12.80
2018,05,30,10,18,12.80
2018,05,30,10,19,12.80
2018,05,30,10,20,12.80
2018,05,30,10,21,12.80
2018,05,30,10,22,12.80
2018,05,30,10,23,12.80
2018,05,30,10,24,12.90
2018,05,30,10,25,12.90
2018,05,30,10,26,12.90
2018,05,30,10,27,12.90
2018,05,30,10,28,12.90
2018,05,30,10,29,12.90
2018,05,30,10,30,12.90
2018,05,30,10,31,13.00
2018,05,30,10,32,13.00
2018,05,30,10,33,13.10
2018,05,30,10,34,13.10
2018,05,30,10,35,13.10
2018,05,30,10,36,13.10
2018,05,30,10,37,13.20
2018,05,30,10,38,13.20
2018,05,30,10,39,13.20
2018,05,30,10,40,13.30
2018,05,30,10,41,13.30
2018,05,30,10,42,13.30
2018,05,30,10,43,13.40
2018,05,30,10,44,13.40
2018,05,30,10,45,13.50
2018,05,30,10,46,13.50
2018,05,30,10,47,13.60
2018,05,30,10,48,13.60
2018,05,30,10,49,13.70
2018,05,30,10,50,13.70
2018,05,30,10,51,13.80
2018,05,30,10,52,13.80
2018,05,30,10,53,13.80
2018,05,30,10,54,13.90
2018,05,30,10,55,13.90
2018,05,30,10,56,14.00
2018,05,30,10,57,14.00
2018,05,30,10,58,14.00
2018,05,30,10,59,14.00
2018,05,30,11,00,14.00
2018,05,30,11,01,14.00
2018,05,30,11,02,14.00
2018,05,30,11,03,14.00
2018,05,30,11,04,14.00
2018,05,30,11,05,14.00
2018,05,30,11,06,14.00
2018,05,30,11,07,14.00
2018,05,30,11,08,14.10
2018,05,30,11,09,14.10
2018,05,30,11,10,14.10
2018,05,30,11,11,14.10
2018,05,30,11,12,14.10
2018,05,30,11,13,14.10
2018,05,30,11,14,14.20
2018,05,30,11,15,14.20
2018,05,30,11,16,14.20
2018,05,30,11,17,14.30
2018,05,30,11,18,14.30
2018,05,30,11,19,14.30
2018,05,30,11,20,14.40
2018,05,30,11,21,14.40
2018,05,30,11,22,14.40
2018,05,30,11,23,14.40
2018,05,30,11,24,14.50
2018,05,30,11,25,14.50
2018,05,30,11,26,14.60
2018,05,30,11,27,14.60
2018,05,30,11,28,14.60
2018,05,30,11,29,14.70
2018,05,30,11,30,14.70
2018,05,30,11,31,14.70
2018,05,30,11,32,14.60
2018,05,30,11,33,14.60
2018,05,30,11,34,14.60
2018,05,30,11,35,14.60
2018,05,30,11,36,14.60
2018,05,30,11,37,14.60
2018,05,30,11,38,14.60
2018,05,30,11,39,14.60
2018,05,30,11,40,14.60
2018,05,30,11,41,14.60
2018,05,30,11,42,14.60
2018,05,30,11,43,14.60
2018,05,30,11,44,14.60
2018,05,30,11,45,14.60
2018,05,30,11,46,14.50
2018,05,30,11,47,14.50
2018,05,30,11,48,14.50
2018,05,30,11,49,14.40
2018,05,30,11,50,14.40
2018,05,30,11,51,14.40
2018,05,30,11,52,14.30
2018,05,30,11,53,14.30
2018,05,30,11,54,14.30
2018,05,30,11,55,14.20
2018,05,30,11,56,14.20
2018,05,30,11,57,14.10
2018,05,30,11,58,14.10
2018,05,30,11,59,14.10
2018,05,30,12,00,14.00
2018,05,30,12,01,13.90
2018,05,30,12,02,13.90
2018,05,30,12,03,13.90
2018,05,30,12,04,13.90
2018,05,30,12,05,14.00
2018,05,30,12,06,14.00
2018,05,30,12,07,14.10
2018,05,30,12,08,14.20
2018,05,30,12,09,14.40
2018,05,30,12,10,14.50
2018,05,30,12,11,14.70
2018,05,30,12,12,14.80
2018,05,30,12,13,15.00
2018,05,30,12,14,15.00
2018,05,30,12,15,15.00
2018,05,30,12,16,15.00
2018,05,30,12,17,15.10
2018,05,30,12,18,15.20
2018,05,30,12,19,15.30
2018,05,30,12,20,15.40
2018,05,30,12,21,15.40
2018,05,30,12,22,15.40
2018,05,30,12,23,15.40
2018,05,30,12,24,15.30
2018,05,30,12,25,15.30
2018,05,30,12,26,15.30
2018,05,30,12,27,15.40
2018,05,30,12,28,15.40
2018,05,30,12,29,15.50
2018,05,30,12,30,15.50
2018,05,30,12,31,15.60
2018,05,30,12,32,15.70
2018,05,30,12,33,15.70
2018,05,30,12,34,15.80
2018,05,30,12,35,15.80
2018,05,30,12,36,15.90
2018,05,30,12,37,15.90
2018,05,30,12,38,16.00
2018,05,30,12,39,16.10
2018,05,30,12,40,16.10
2018,05,30,12,41,16.20
2018,05,30,12,42,16.20
2018,05,30,12,43,16.20
2018,05,30,12,44,16.20
2018,05,30,12,45,16.10
2018,05,30,12,46,16.10
2018,05,30,12,47,16.10
2018,05,30,12,48,16.10
2018,05,30,12,49,16.00
2018,05,30,12,50,16.00
2018,05,30,12,51,16.10
2018,05,30,12,52,16.10
2018,05,30,12,53,16.20
2018,05,30,12,54,16.10
2018,05,30,12,55,16.10
2018,05,30,12,56,16.10
2018,05,30,12,57,16.00
2018,05,30,12,58,15.90
2018,05,30,12,59,15.90
2018,05,30,13,00,15.80
2018,05,30,13,01,15.80
2018,05,30,13,02,15.70
2018,05,30,13,03,15.60
2018,05,30,13,04,15.60
2018,05,30,13,05,15.60
2018,05,30,13,06,15.60
2018,05,30,13,07,15.70
2018,05,30,13,08,15.80
2018,05,30,13,09,15.80
2018,05,30,13,10,15.80
2018,05,30,13,11,15.80
2018,05,30,13,12,15.80
2018,05,30,13,13,15.80
2018,05,30,13,14,15.80
2018,05,30,13,15,15.80
2018,05,30,13,16,15.80
2018,05,30,13,17,15.80
2018,05,30,13,18,15.90
2018,05,30,13,19,15.90
2018,05,30,13,20,15.90
2018,05,30,13,21,15.90
2018,05,30,13,22,15.80
2018,05,30,13,23,15.70
2018,05,30,13,24,15.70
2018,05,30,13,25,15.60
2018,05,30,13,26,15.60
2018,05,30,13,27,15.70
2018,05,30,13,28,15.70
2018,05,30,13,29,15.70
2018,05,30,13,30,15.80
2018,05,30,13,31,15.80
2018,05,30,13,32,15.90
2018,05,30,13,33,15.90
2018,05,30,13,34,15.90
2018,05,30,13,35,16.00
2018,05,30,13,36,16.10
2018,05,30,13,37,16.20
2018,05,30,13,38,16.20
2018,05,30,13,39,16.30
2018,05,30,13,40,16.30
2018,05,30,13,41,16.40
2018,05,30,13,42,16.50
2018,05,30,13,43,16.50
2018,05,30,13,44,16.60
2018,05,30,13,45,16.70
2018,05,30,13,46,16.70
2018,05,30,13,47,16.70
2018,05,30,13,48,16.80
2018,05,30,13,49,16.80
2018,05,30,13,50,16.80
2018,05,30,13,51,16.80
2018,05,30,13,52,16.90
2018,05,30,13,53,16.90
2018,05,30,13,54,17.00
2018,05,30,13,55,17.10
2018,05,30,13,56,17.20
2018,05,30,13,57,17.30
2018,05,30,13,58,17.30
2018,05,30,13,59,17.40
2018,05,30,14,00,17.40
2018,05,30,14,01,17.40
2018,05,30,14,02,17.50
2018,05,30,14,03,17.50
2018,05,30,14,04,17.50
2018,05,30,14,05,17.40
2018,05,30,14,06,17.30
2018,05,30,14,07,17.30
2018,05,30,14,08,17.30
2018,05,30,14,09,17.40
2018,05,30,14,10,17.40
2018,05,30,14,11,17.40
2018,05,30,14,12,17.50
2018,05,30,14,13,17.60
2018,05,30,14,14,17.70
2018,05,30,14,15,17.70
2018,05,30,14,16,17.80
2018,05,30,14,17,17.90
2018,05,30,14,18,18.00
2018,05,30,14,19,18.10
2018,05,30,14,20,18.20
2018,05,30,14,21,18.30
2018,05,30,14,22,18.30
2018,05,30,14,23,18.30
2018,05,30,14,24,18.30
2018,05,30,14,25,18.20
2018,05,30,14,26,18.10
2018,05,30,14,27,18.00
2018,05,30,14,28,17.90
2018,05,30,14,29,17.90
2018,05,30,14,30,17.90
2018,05,30,14,31,17.90
2018,05,30,14,32,18.00
2018,05,30,14,33,18.10
2018,05,30,14,34,18.20
2018,05,30,14,35,18.30
2018,05,30,14,36,18.40
2018,05,30,14,37,18.50
2018,05,30,14,38,18.60
2018,05,30,14,39,18.70
2018,05,30,14,40,18.80
2018,05,30,14,41,18.80
2018,05,30,14,42,18.80
2018,05,30,14,43,18.80
2018,05,30,14,44,18.80
2018,05,30,14,45,18.80
2018,05,30,14,46,18.70
2018,05,30,14,47,18.70
2018,05,30,14,48,18.70
2018,05,30,14,49,18.60
2018,05,30,14,50,18.60
2018,05,30,14,51,18.70
2018,05,30,14,52,18.80
2018,05,30,14,53,18.80
2018,05,30,14,54,18.90
2018,05,30,14,55,18.90
2018,05,30,14,56,19.00
2018,05,30,14,57,19.00
2018,05,30,14,58,19.00
2018,05,30,14,59,19.10
2018,05,30,15,00,19.10
2018,05,30,15,01,19.10
2018,05,30,15,02,19.20
2018,05,30,15,03,19.20
2018,05,30,15,04,19.20
2018,05,30,15,05,19.20
2018,05,30,15,06,19.20
2018,05,30,15,07,19.20
2018,05,30,15,08,19.20
2018,05,30,15,09,19.20
2018,05,30,15,10,19.30
2018,05,30,15,11,19.30
2018,05,30,15,12,19.40
2018,05,30,15,13,19.50
2018,05,30,15,14,19.60
2018,05,30,15,15,19.60
2018,05,30,15,16,19.50
2018,05,30,15,17,19.40
2018,05,30,15,18,19.50
2018,05,30,15,19,19.50
2018,05,30,15,20,19.60
2018,05,30,15,21,19.50
2018,05,30,15,22,19.40
2018,05,30,15,23,19.40
2018,05,30,15,24,19.40
2018,05,30,15,25,19.40
2018,05,30,15,26,19.40
2018,05,30,15,27,19.50
2018,05,30,15,28,19.50
2018,05,30,15,29,19.60
2018,05,30,15,30,19.60
2018,05,30,15,31,19.60
2018,05,30,15,32,19.70
2018,05,30,15,33,19.70
2018,05,30,15,34,19.60
2018,05,30,15,35,19.60
2018,05,30,15,36,19.50
2018,05,30,15,37,19.40
2018,05,30,15,38,19.30
2018,05,30,15,39,19.20
2018,05,30,15,40,19.20
2018,05,30,15,41,19.20
2018,05,30,15,42,19.20
2018,05,30,15,43,19.20
2018,05,30,15,44,19.20
2018,05,30,15,45,19.10
2018,05,30,15,46,19.10
2018,05,30,15,47,19.10
2018,05,30,15,48,19.10
2018,05,30,15,49,19.00
2018,05,30,15,50,19.00
2018,05,30,15,51,19.00
2018,05,30,15,52,18.90
2018,05,30,15,53,18.80
2018,05,30,15,54,18.70
2018,05,30,15,55,18.50
2018,05,30,15,56,18.40
2018,05,30,15,57,18.30
2018,05,30,15,58,18.30
2018,05,30,15,59,18.20
2018,05,30,16,00,18.30
2018,05,30,16,01,18.30
2018,05,30,16,02,18.20
2018,05,30,16,03,18.20
2018,05,30,16,04,18.20
2018,05,30,16,05,18.10
2018,05,30,16,06,18.00
2018,05,30,16,07,17.90
2018,05,30,16,08,17.80
2018,05,30,16,09,17.80
2018,05,30,16,10,17.70
2018,05,30,16,11,17.60
2018,05,30,16,12,17.50
2018,05,30,16,13,17.40
2018,05,30,16,14,17.30
2018,05,30,16,15,17.30
2018,05,30,16,16,17.20
2018,05,30,16,17,17.10
2018,05,30,16,18,17.00
2018,05,30,16,19,17.00
2018,05,30,16,20,16.90
2018,05,30,16,21,16.90
2018,05,30,16,22,16.90
2018,05,30,16,23,16.90
2018,05,30,16,24,16.90
2018,05,30,16,25,16.90
2018,05,30,16,26,16.90
2018,05,30,16,27,16.90
2018,05,30,16,28,16.90
2018,05,30,16,29,17.00
2018,05,30,16,30,17.10
2018,05,30,16,31,17.10
2018,05,30,16,32,17.10
2018,05,30,16,33,17.10
2018,05,30,16,34,17.20
2018,05,30,16,35,17.20
2018,05,30,16,36,17.20
2018,05,30,16,37,17.20
2018,05,30,16,38,17.30
2018,05,30,16,39,17.30
2018,05,30,16,40,17.40
2018,05,30,16,41,17.40
2018,05,30,16,42,17.50
2018,05,30,16,43,17.50
2018,05,30,16,44,17.60
2018,05,30,16,45,17.60
2018,05,30,16,46,17.60
2018,05,30,16,47,17.60
2018,05,30,16,48,17.60
2018,05,30,16,49,17.60
2018,05,30,16,50,17.60
2018,05,30,16,51,17.70
2018,05,30,16,52,17.80
2018,05,30,16,53,17.80
2018,05,30,16,54,17.90
2018,05,30,16,55,18.00
2018,05,30,16,56,18.00
2018,05,30,16,57,18.10
2018,05,30,16,58,18.10
2018,05,30,16,59,18.10
2018,05,30,17,00,18.10
2018,05,30,17,01,18.20
2018,05,30,17,02,18.20
2018,05,30,17,03,18.20
2018,05,30,17,04,18.20
2018,05,30,17,05,18.20
2018,05,30,17,06,18.20
2018,05,30,17,07,18.20
2018,05,30,17,08,18.20
2018,05,30,17,09,18.20
2018,05,30,17,10,18.20
2018,05,30,17,11,18.20
2018,05,30,17,12,18.20
2018,05,30,17,13,18.20
2018,05,30,17,14,18.20
2018,05,30,17,15,18.20
2018,05,30,17,16,18.20
2018,05,30,17,17,18.20
2018,05,30,17,18,18.20
2018,05,30,17,19,18.10
2018,05,30,17,20,18.10
2018,05,30,17,21,18.10
2018,05,30,17,22,18.10
2018,05,30,17,23,18.10
2018,05,30,17,24,18.10
2018,05,30,17,25,18.10
2018,05,30,17,26,18.10
2018,05,30,17,27,18.00
2018,05,30,17,28,18.00
2018,05,30,17,29,17.90
2018,05,30,17,30,17.90
2018,05,30,17,31,17.90
2018,05,30,17,32,17.90
2018,05,30,17,33,17.90
2018,05,30,17,34,18.00
2018,05,30,17,35,18.00
2018,05,30,17,36,18.10
2018,05,30,17,37,18.20
2018,05,30,17,38,18.20
2018,05,30,17,39,18.30
2018,05,30,17,40,18.30
2018,05,30,17,41,18.30
2018,05,30,17,42,18.30